| time (UTC) | temp F | wind direction | speed knots | gust knots | rain 1hr in | rain 24hr in | rain mn in | humidity % | barometer mb |
| 20260505041526 | 66 | 187 | 2.6 | 2.6 | 0.00 | 0.00 | 0.00 | 67 | 1015.9 |
| 20260505040919 | 66 | 231 | 1.7 | 2.6 | 0.00 | 0.00 | 0.00 | 68 | 1015.5 |
| 20260505035138 | 65 | 157 | 1.7 | 4.3 | 0.00 | 0.00 | 0.00 | 70 | 1015.5 |
| 20260505034556 | 64 | 152 | 2.6 | 3.5 | 0.00 | 0.00 | 0.00 | 71 | 1015.5 |
| 20260505033913 | 62 | 183 | 1.7 | 1.7 | 0.00 | 0.00 | 0.00 | 76 | 1015.5 |
| 20260505033320 | 62 | 289 | 1.7 | 1.7 | 0.00 | 0.00 | 0.00 | 76 | 1015.2 |
| 20260505032719 | 62 | 265 | 1.7 | 2.6 | 0.00 | 0.00 | 0.00 | 77 | 1015.2 |
| 20260505032128 | 62 | 167 | 0.0 | 1.7 | 0.00 | 0.00 | 0.00 | 78 | 1015.2 |
| 20260505031514 | 62 | 175 | 0.0 | 0.9 | 0.00 | 0.00 | 0.00 | 77 | 1015.2 |
| 20260505030941 | 62 | 184 | 0.0 | 1.7 | 0.00 | 0.00 | 0.00 | 77 | 1015.2 |
| 20260505030344 | 63 | 158 | 0.0 | 2.6 | 0.00 | 0.00 | 0.00 | 77 | 1015.2 |
| 20260505025743 | 63 | 213 | 0.0 | 1.7 | 0.00 | 0.00 | 0.00 | 77 | 1015.2 |
| 20260505025129 | 62 | 223 | 2.6 | 3.5 | 0.00 | 0.00 | 0.00 | 76 | 1015.2 |
| 20260505024538 | 62 | 133 | 0.9 | 0.9 | 0.00 | 0.00 | 0.00 | 79 | 1015.2 |
| 20260505022123 | 62 | 166 | 0.0 | 0.0 | 0.00 | 0.00 | 0.00 | 81 | 1015.2 |
| 20260505021512 | 62 | 170 | 0.0 | 0.0 | 0.00 | 0.00 | 0.00 | 80 | 1015.2 |
| 20260505020926 | 62 | 142 | 0.0 | 0.0 | 0.00 | 0.00 | 0.00 | 79 | 1015.2 |
| 20260505020317 | 62 | 176 | 0.0 | 0.0 | 0.00 | 0.00 | 0.00 | 79 | 1015.2 |
| 20260505015154 | 62 | 177 | 0.0 | 0.0 | 0.00 | 0.00 | 0.00 | 78 | 1014.9 |
| 20260505014530 | 63 | 161 | 0.0 | 0.0 | 0.00 | 0.00 | 0.00 | 77 | 1014.9 |
| 20260505013918 | 63 | 162 | 0.0 | 1.7 | 0.00 | 0.00 | 0.00 | 76 | 1014.9 |
| 20260505013318 | 64 | 235 | 0.0 | 0.9 | 0.00 | 0.00 | 0.00 | 76 | 1014.9 |
| 20260505012711 | 64 | 161 | 0.0 | 1.7 | 0.00 | 0.00 | 0.00 | 75 | 1014.9 |
| 20260505012147 | 64 | 159 | 0.0 | 2.6 | 0.00 | 0.00 | 0.00 | 76 | 1014.9 |
| 20260505011536 | 65 | 163 | 0.0 | 1.7 | 0.00 | 0.00 | 0.00 | 74 | 1014.9 |
| 20260505010914 | 65 | 185 | 0.0 | 1.7 | 0.00 | 0.00 | 0.00 | 74 | 1014.5 |
| 20260505010331 | 65 | 255 | 1.7 | 2.6 | 0.00 | 0.00 | 0.00 | 73 | 1014.5 |
| 20260505005751 | 66 | 258 | 1.7 | 2.6 | 0.00 | 0.00 | 0.00 | 72 | 1014.9 |
| 20260505005121 | 66 | 293 | 0.0 | 0.0 | 0.00 | 0.00 | 0.00 | 71 | 1014.9 |
| 20260505004534 | 66 | 255 | 0.0 | 1.7 | 0.00 | 0.00 | 0.00 | 71 | 1014.9 |
| 20260505003929 | 67 | 274 | 1.7 | 2.6 | 0.00 | 0.00 | 0.00 | 70 | 1014.9 |
| 20260505003354 | 67 | 199 | 1.7 | 1.7 | 0.00 | 0.00 | 0.00 | 70 | 1014.5 |
| 20260505002111 | 67 | 166 | 1.7 | 2.6 | 0.00 | 0.00 | 0.00 | 69 | 1014.9 |
| 20260505001513 | 67 | 227 | 2.6 | 2.6 | 0.00 | 0.00 | 0.00 | 69 | 1014.9 |
| 20260505000916 | 67 | 174 | 0.0 | 2.6 | 0.00 | 0.00 | 0.00 | 69 | 1014.9 |
| 20260505000318 | 68 | 234 | 0.0 | 1.7 | 0.00 | 0.00 | 0.00 | 68 | 1014.9 |
| 20260504235715 | 68 | 182 | 0.0 | 1.7 | 0.00 | 0.00 | 0.00 | 69 | 1014.5 |
| 20260504234528 | 69 | 317 | 1.7 | 2.6 | 0.00 | 0.00 | 0.00 | 66 | 1014.5 |
| 20260504233933 | 70 | 259 | 0.0 | 2.6 | 0.00 | 0.00 | 0.00 | 64 | 1014.9 |
| 20260504233341 | 71 | 169 | 3.5 | 3.5 | 0.00 | 0.00 | 0.00 | 60 | 1014.9 |
| 20260504232715 | 73 | 270 | 2.6 | 2.6 | 0.00 | 0.00 | 0.00 | 61 | 1014.9 |
| 20260504232153 | 75 | 233 | 1.7 | 1.7 | 0.00 | 0.00 | 0.00 | 55 | 1014.9 |
| 20260504231519 | 75 | 207 | 0.9 | 4.3 | 0.00 | 0.00 | 0.00 | 52 | 1014.9 |
| 20260504230952 | 75 | 198 | 0.9 | 4.3 | 0.00 | 0.00 | 0.00 | 51 | 1014.9 |
| 20260504225714 | 75 | 176 | 6.1 | 9.6 | 0.00 | 0.00 | 0.00 | 50 | 1014.9 |
| 20260504225147 | 75 | 225 | 4.3 | 4.3 | 0.00 | 0.00 | 0.00 | 53 | 1014.9 |
| 20260504224511 | 75 | 320 | 2.6 | 6.1 | 0.00 | 0.00 | 0.00 | 53 | 1014.9 |
| 20260504223935 | 76 | 197 | 0.0 | 6.1 | 0.00 | 0.00 | 0.00 | 50 | 1014.9 |
| 20260504223316 | 75 | 189 | 3.5 | 7.8 | 0.00 | 0.00 | 0.00 | 47 | 1014.9 |
| 20260504222753 | 76 | 325 | 3.5 | 5.2 | 0.00 | 0.00 | 0.00 | 55 | 1014.9 |
| 20260504222112 | 76 | 170 | 2.6 | 10.4 | 0.00 | 0.00 | 0.00 | 48 | 1014.9 |
| 20260504221522 | 77 | 149 | 4.3 | 8.7 | 0.00 | 0.00 | 0.00 | 46 | 1015.2 |
| 20260504220927 | 78 | 175 | 3.5 | 6.1 | 0.00 | 0.00 | 0.00 | 47 | 1015.2 |
| 20260504220316 | 77 | 198 | 0.9 | 5.2 | 0.00 | 0.00 | 0.00 | 48 | 1015.2 |
| 20260504215123 | 77 | 291 | 2.6 | 2.6 | 0.00 | 0.00 | 0.00 | 59 | 1015.2 |
| 20260504214552 | 77 | 247 | 5.2 | 7.0 | 0.00 | 0.00 | 0.00 | 49 | 1015.2 |
| 20260504213951 | 77 | 188 | 2.6 | 5.2 | 0.00 | 0.00 | 0.00 | 50 | 1015.2 |
| 20260504211527 | 78 | 203 | 7.0 | 7.8 | 0.00 | 0.00 | 0.00 | 47 | 1015.2 |
| 20260504210950 | 77 | 168 | 4.3 | 8.7 | 0.00 | 0.00 | 0.00 | 49 | 1015.2 |
| 20260504210330 | 78 | 220 | 4.3 | 7.0 | 0.00 | 0.00 | 0.00 | 48 | 1015.2 |
| 20260504205734 | 78 | 175 | 5.2 | 7.8 | 0.00 | 0.00 | 0.00 | 48 | 1015.5 |
| 20260504205140 | 78 | 246 | 5.2 | 7.0 | 0.00 | 0.00 | 0.00 | 48 | 1015.5 |
| 20260504204542 | 79 | 175 | 4.3 | 7.8 | 0.00 | 0.00 | 0.00 | 48 | 1015.5 |
| 20260504203931 | 78 | 219 | 8.7 | 10.4 | 0.00 | 0.00 | 0.00 | 48 | 1015.5 |
| 20260504202734 | 76 | 231 | 4.3 | 7.0 | 0.00 | 0.00 | 0.00 | 50 | 1015.5 |
| 20260504202114 | 78 | 201 | 2.6 | 2.6 | 0.00 | 0.00 | 0.00 | 50 | 1015.9 |
| 20260504201541 | 76 | 144 | 7.0 | 12.2 | 0.00 | 0.00 | 0.00 | 53 | 1015.9 |
| 20260504200320 | 77 | 167 | 5.2 | 8.7 | 0.00 | 0.00 | 0.00 | 54 | 1016.2 |
| 20260504195752 | 76 | 206 | 6.1 | 6.1 | 0.00 | 0.00 | 0.00 | 58 | 1016.2 |
| 20260504195124 | 75 | 201 | 4.3 | 4.3 | 0.00 | 0.00 | 0.00 | 57 | 1016.2 |
| 20260504194552 | 74 | 186 | 4.3 | 7.8 | 0.00 | 0.00 | 0.00 | 57 | 1016.5 |
| 20260504193936 | 75 | 169 | 3.5 | 8.7 | 0.00 | 0.00 | 0.00 | 57 | 1016.2 |
| 20260504193337 | 74 | 173 | 6.1 | 7.8 | 0.00 | 0.00 | 0.00 | 59 | 1016.5 |
| 20260504192722 | 74 | 218 | 6.1 | 6.1 | 0.00 | 0.00 | 0.00 | 61 | 1016.5 |
| 20260504192139 | 74 | 162 | 1.7 | 2.6 | 0.00 | 0.00 | 0.00 | 59 | 1016.9 |
| 20260504191533 | 74 | 159 | 1.7 | 5.2 | 0.00 | 0.00 | 0.00 | 60 | 1016.9 |
| 20260504190949 | 73 | 272 | 2.6 | 5.2 | 0.00 | 0.00 | 0.00 | 59 | 1016.9 |
| 20260504185733 | 72 | 243 | 3.5 | 5.2 | 0.00 | 0.00 | 0.00 | 63 | 1017.2 |
| 20260504184535 | 70 | 222 | 2.6 | 8.7 | 0.00 | 0.00 | 0.00 | 65 | 1017.2 |
| 20260504183943 | 69 | 243 | 3.5 | 7.0 | 0.00 | 0.00 | 0.00 | 64 | 1017.2 |
| 20260504183329 | 69 | 181 | 4.3 | 8.7 | 0.00 | 0.00 | 0.00 | 63 | 1017.2 |
| 20260504182741 | 69 | 171 | 3.5 | 7.0 | 0.00 | 0.00 | 0.00 | 61 | 1017.6 |
| 20260504182142 | 68 | 281 | 7.0 | 8.7 | 0.00 | 0.00 | 0.00 | 62 | 1017.6 |
| 20260504181512 | 68 | 199 | 6.1 | 7.0 | 0.00 | 0.00 | 0.00 | 63 | 1017.9 |
| 20260504180923 | 67 | 151 | 5.2 | 5.2 | 0.00 | 0.00 | 0.00 | 65 | 1018.2 |
| 20260504180320 | 66 | 202 | 2.6 | 4.3 | 0.00 | 0.00 | 0.00 | 67 | 1018.2 |
| 20260504175748 | 65 | 129 | 5.2 | 6.1 | 0.00 | 0.00 | 0.00 | 67 | 1018.2 |
| 20260504174534 | 66 | 190 | 2.6 | 7.8 | 0.00 | 0.00 | 0.00 | 62 | 1018.6 |
| 20260504173931 | 67 | 264 | 5.2 | 6.1 | 0.00 | 0.00 | 0.00 | 60 | 1018.6 |
| 20260504172713 | 68 | 243 | 5.2 | 7.8 | 0.00 | 0.00 | 0.00 | 58 | 1017.9 |
| 20260504172134 | 70 | 172 | 5.2 | 7.0 | 0.00 | 0.00 | 0.00 | 58 | 1017.9 |
| 20260504171554 | 68 | 185 | 4.3 | 12.2 | 0.00 | 0.00 | 0.00 | 58 | 1017.9 |
| 20260504170919 | 68 | 164 | 7.0 | 8.7 | 0.00 | 0.00 | 0.00 | 58 | 1017.9 |
| 20260504170335 | 70 | 246 | 6.1 | 7.0 | 0.00 | 0.00 | 0.00 | 57 | 1017.6 |
| 20260504160347 | 65 | 260 | 5.2 | 7.8 | 0.00 | 0.00 | 0.00 | 67 | 1018.2 |
| 20260504141236 | 57 | 164 | 3.5 | 6.1 | 0.00 | 0.00 | 0.00 | 81 | 1019.9 |
| 20260504140653 | 56 | 111 | 4.3 | 7.8 | 0.00 | 0.00 | 0.00 | 81 | 1020.3 |
| 20260504130633 | 54 | 219 | 5.2 | 8.7 | 0.00 | 0.00 | 0.00 | 84 | 1020.6 |
| 20260504110627 | 52 | 192 | 2.6 | 3.5 | 0.00 | 0.00 | 0.00 | 70 | 1019.6 |
| 20260504081814 | 48 | 230 | 0.0 | 0.0 | 0.00 | 0.00 | 0.00 | 83 | 1020.3 |
| 20260504081216 | 48 | 156 | 0.0 | 0.0 | 0.00 | 0.00 | 0.00 | 83 | 1020.3 |
| 20260504080626 | 48 | 166 | 0.0 | 0.0 | 0.00 | 0.00 | 0.00 | 83 | 1020.3 |
| 20260504045417 | 52 | 172 | 0.9 | 2.6 | 0.00 | 0.00 | 0.00 | 71 | 1021.6 |
| 20260504044831 | 52 | 235 | 2.6 | 4.3 | 0.00 | 0.00 | 0.00 | 73 | 1021.6 |
| 20260504044221 | 52 | 168 | 1.7 | 3.5 | 0.00 | 0.00 | 0.00 | 74 | 1021.6 |
| 20260504043642 | 51 | 145 | 1.7 | 3.5 | 0.00 | 0.00 | 0.00 | 75 | 1021.6 |
| 20260504043048 | 51 | 168 | 0.0 | 0.0 | 0.00 | 0.00 | 0.00 | 76 | 1022.0 |
| 20260504042431 | 51 | 181 | 0.0 | 0.0 | 0.00 | 0.00 | 0.00 | 77 | 1022.0 |